Weather reports worldwide

Advertisment
Elphin, United Kingdom (99153): temperature & dewpoint: 19.03.2017 21:00:00 - 25.03.2017 21:00:00 (GMT)Elphin, United Kingdom (99153): precipitation: 19.03.2017 21:00:00 - 25.03.2017 21:00:00 (GMT)
Date & Time tt [°C] td [°C] rr [mm]
25.03.2017 21:00:00 4,9 0,5 -
25.03.2017 20:00:00 5,4 2,4 0,0
25.03.2017 19:00:00 6,2 2,4 0,0
25.03.2017 18:00:00 9,6 3,5 0,0
25.03.2017 17:00:00 11,6 0,1 0,0
25.03.2017 16:00:00 12,8 -5,2 0,0
25.03.2017 15:00:00 13,8 -3,1 0,0
25.03.2017 14:00:00 13,3 -3,3 0,0
25.03.2017 13:00:00 13,1 -3,4 0,0
25.03.2017 12:00:00 12,5 -6,1 0,0
25.03.2017 11:00:00 11,7 -2,7 0,0
25.03.2017 10:00:00 10,9 -3,5 0,0
25.03.2017 09:00:00 9,4 -2,9 0,0
25.03.2017 08:00:00 8,8 -1,3 0,0
25.03.2017 07:00:00 5,7 -1,0 0,0
25.03.2017 06:00:00 5,8 -2,9 0,0
25.03.2017 05:00:00 6,2 -3,4 0,0
25.03.2017 04:00:00 5,5 -4,5 0,0
25.03.2017 03:00:00 5,1 -2,8 0,0
25.03.2017 02:00:00 2,9 -1,0 0,0
25.03.2017 01:00:00 2,6 -1,7 0,0
25.03.2017 00:00:00 3,3 -0,9 0,0
24.03.2017 23:00:00 5,0 0,3 0,0
24.03.2017 22:00:00 7,3 1,9 0,0
24.03.2017 21:00:00 7,1 1,9 0,0
24.03.2017 20:00:00 7,6 2,9 0,0
24.03.2017 19:00:00 7,6 3,2 0,0
24.03.2017 18:00:00 8,2 3,3 0,0
24.03.2017 17:00:00 8,6 3,8 0,0
24.03.2017 16:00:00 9,0 4,0 0,0
24.03.2017 15:00:00 9,2 4,3 0,0
24.03.2017 14:00:00 8,9 4,7 0,0
24.03.2017 13:00:00 8,0 3,9 0,0
24.03.2017 12:00:00 8,2 4,0 0,0
24.03.2017 11:00:00 7,8 3,6 0,0
24.03.2017 10:00:00 7,3 3,5 0,0
24.03.2017 09:00:00 6,9 3,2 0,0
24.03.2017 08:00:00 6,6 3,1 0,0
24.03.2017 07:00:00 6,1 3,0 0,0
24.03.2017 06:00:00 5,8 3,2 0,0
24.03.2017 05:00:00 5,6 2,6 0,0
24.03.2017 04:00:00 5,3 1,8 0,0
24.03.2017 03:00:00 5,0 1,1 0,0
24.03.2017 02:00:00 1,1 -0,1 0,0
24.03.2017 01:00:00 1,1 -0,4 0,0
24.03.2017 00:00:00 -0,5 -1,5 0,0
23.03.2017 23:00:00 0,8 -0,7 0,0
23.03.2017 22:00:00 -0,8 -2,0 0,0
23.03.2017 21:00:00 0,7 -0,8 0,0
23.03.2017 20:00:00 0,7 -1,6 0,0
23.03.2017 19:00:00 2,8 -1,1 0,0
23.03.2017 18:00:00 4,5 -1,6 0,0
23.03.2017 17:00:00 6,3 -1,5 0,0
23.03.2017 16:00:00 7,9 -1,8 0,0
23.03.2017 15:00:00 8,6 -1,1 0,0
23.03.2017 14:00:00 7,7 -2,6 0,0
23.03.2017 13:00:00 7,2 -2,0 -
23.03.2017 12:00:00 5,7 -2,5 -
23.03.2017 11:00:00 5,3 -2,8 -
23.03.2017 10:00:00 4,2 -1,6 0,0
23.03.2017 09:00:00 1,2 0,1 0,2
23.03.2017 08:00:00 -2,7 -3,3 0,0
23.03.2017 07:00:00 -5,5 -6,0 0,0
23.03.2017 06:00:00 -5,8 -6,3 0,0
23.03.2017 05:00:00 -5,4 -5,9 0,0
23.03.2017 04:00:00 -4,5 -5,0 0,0
23.03.2017 03:00:00 -4,8 -5,5 0,0
23.03.2017 02:00:00 -4,4 -5,0 0,0
23.03.2017 01:00:00 -3,5 -4,3 0,0
23.03.2017 00:00:00 -3,0 -4,0 0,0
22.03.2017 23:00:00 -1,7 -3,5 0,0
22.03.2017 22:00:00 0,2 -2,9 0,0
22.03.2017 21:00:00 2,3 -2,1 0,0
22.03.2017 20:00:00 2,1 -2,2 0,0
22.03.2017 19:00:00 2,9 -1,7 0,0
22.03.2017 18:00:00 3,6 -1,0 0,0
22.03.2017 17:00:00 3,8 -1,8 0,0
22.03.2017 16:00:00 4,3 -1,0 0,0
22.03.2017 15:00:00 5,5 -1,2 0,0
22.03.2017 14:00:00 6,6 -0,1 0,0
22.03.2017 13:00:00 6,7 -0,3 0,0
22.03.2017 12:00:00 5,8 0,2 -
22.03.2017 11:00:00 5,5 0,5 0,0
22.03.2017 10:00:00 3,9 -0,4 0,0
22.03.2017 09:00:00 3,2 0,6 0,0
22.03.2017 08:00:00 2,8 -0,2 0,0
22.03.2017 07:00:00 2,4 0,2 0,0
22.03.2017 06:00:00 1,1 0,7 0,0
22.03.2017 05:00:00 1,1 0,7 0,2
22.03.2017 04:00:00 0,8 0,5 0,0
22.03.2017 03:00:00 0,9 0,5 0,0
22.03.2017 02:00:00 1,0 0,3 0,6
22.03.2017 01:00:00 1,7 0,8 0,2
22.03.2017 00:00:00 1,5 0,4 0,2
21.03.2017 23:00:00 2,5 0,3 0,0
21.03.2017 22:00:00 3,3 0,1 0,0
21.03.2017 21:00:00 2,6 0,2 0,0
21.03.2017 20:00:00 3,4 -0,2 0,0
21.03.2017 19:00:00 3,4 0,3 -
21.03.2017 18:00:00 3,4 1,8 1,0
21.03.2017 17:00:00 3,2 2,1 1,0
21.03.2017 16:00:00 2,7 1,4 0,8
21.03.2017 15:00:00 2,6 1,3 1,0
21.03.2017 14:00:00 3,4 2,2 1,2
21.03.2017 13:00:00 5,3 3,5 0,0
21.03.2017 12:00:00 3,9 2,4 0,8
21.03.2017 11:00:00 2,9 1,5 0,2
21.03.2017 10:00:00 2,1 1,4 0,0
21.03.2017 09:00:00 1,4 1,1 -
21.03.2017 08:00:00 0,6 0,2 0,0
21.03.2017 07:00:00 0,9 0,5 0,0
21.03.2017 06:00:00 0,7 0,3 0,0
21.03.2017 05:00:00 0,7 0,2 0,4
21.03.2017 04:00:00 1,6 0,6 1,0
21.03.2017 03:00:00 1,7 0,8 1,0
21.03.2017 02:00:00 1,4 0,5 0,8
21.03.2017 01:00:00 1,7 0,6 1,2
21.03.2017 00:00:00 2,8 1,7 1,0
20.03.2017 23:00:00 2,1 1,1 2,4
20.03.2017 22:00:00 3,6 1,6 0,2
20.03.2017 21:00:00 3,7 0,9 0,0
20.03.2017 20:00:00 4,5 1,3 0,0
20.03.2017 19:00:00 4,9 0,8 0,0
20.03.2017 18:00:00 4,9 -0,1 0,0
20.03.2017 17:00:00 5,4 0,1 0,0
20.03.2017 16:00:00 5,9 0,2 0,0
20.03.2017 15:00:00 5,9 0,8 0,0
20.03.2017 14:00:00 6,1 0,4 0,2
20.03.2017 13:00:00 5,0 1,2 0,0
20.03.2017 12:00:00 5,6 2,1 0,2
20.03.2017 11:00:00 4,2 2,9 0,8
20.03.2017 10:00:00 3,6 1,2 1,0
20.03.2017 09:00:00 4,7 0,6 0,2
20.03.2017 08:00:00 4,7 2,2 0,6
20.03.2017 07:00:00 4,9 2,4 0,4
20.03.2017 06:00:00 4,5 3,8 1,8
20.03.2017 05:00:00 3,4 2,1 0,2
20.03.2017 04:00:00 3,8 2,1 0,0
20.03.2017 03:00:00 2,5 1,1 0,0
20.03.2017 02:00:00 2,9 0,5 0,0
20.03.2017 01:00:00 4,6 1,6 0,0
20.03.2017 00:00:00 4,8 1,6 0,0
19.03.2017 23:00:00 4,1 1,4 0,0
19.03.2017 22:00:00 4,8 2,1 0,0
19.03.2017 21:00:00 4,3 2,0 0,6

tt = temperature
td = dewpoint
rr = precipitation

Next stations